This demonstration page uses our WeatherBlox Daily Observations layout. Learn more.

Left ArrowRight Arrow

47.50024, -111.30081

Hourly Observations for March 14, 2017

Temp ( °F °C ) Dew Point ( °F °C ) Humidity (%) Winds ( mph kmh ) Pressure ( in mb ) Visibility ( mi km ) Precip ( " mm )
12:53 am 00:53 Clear 46 7.8 32 0 58 58 SW 17 28 29.96 1014 10 16 0.00 0.00
1:53 am 01:53 Mostly Cloudy 45 7.2 32 0 61 61 SW 15 24 29.96 1015 10 16 0.00 0.00
2:53 am 02:53 Clear 43 6.1 32 0 65 65 SW 13 20 29.98 1015 10 16 0.00 0.00
3:53 am 03:53 Clear 44 6.7 32 0 63 63 SW 15 24 29.98 1015 10 16 0.00 0.00
4:53 am 04:53 Cloudy 44 6.7 33 0.6 65 65 SW 14 22 29.99 1016 10 16 0.00 0.00
5:53 am 05:53 Mostly Cloudy 44 6.7 34 1.1 68 68 SW 14 22 30.01 1016 10 16 0.00 0.00
6:53 am 06:53 Cloudy 44 6.7 34 1.1 68 68 SW 12 19 30.03 1017 10 16 0.00 0.00
7:53 am 07:53 Cloudy with Light Rain 43 6.1 36 2.2 76 76 SSW 13 20 30.05 1018 10 16 0.00 0.03
8:53 am 08:53 Cloudy with Light Rain 43 6.1 38 3.3 82 82 SW 10 17 30.06 1018 10 16 0.01 0.25
9:53 am 09:53 Cloudy with Light Rain 45 7.2 39 3.9 80 80 SSW 8 13 30.06 1018 10 16 0.01 0.25
10:53 am 10:53 Mostly Cloudy 47 8.3 41 5 80 80 S 8 13 30.05 1018 10 16 0.00 0.03
11:53 am 11:53 Cloudy 49 9.4 42 5.6 77 77 S 8 13 30.02 1017 10 16 0.00 0.03
12:53 pm 12:53 Mostly Sunny 54 12.2 40 4.4 59 59 SW 18 30 29.99 1016 10 16 0.00 0.00
1:53 pm 13:53 Sunny 56 13.3 38 3.3 51 51 SW 21 33 29.97 1015 10 16 0.00 0.00
2:53 pm 14:53 Partly Cloudy 58 14.4 38 3.3 48 48 SSW 21 33 29.94 1014 10 16 0.00 0.00
3:53 pm 15:53 Sunny 62 16.7 38 3.3 41 41 WSW 26 43 29.91 1013 10 16 0.00 0.00
4:53 pm 16:53 Sunny 59 15 38 3.3 46 46 WSW 21 33 29.91 1013 10 16 0.00 0.00
5:53 pm 17:53 Mostly Cloudy 60 15.6 37 2.8 42 42 WSW 24 39 29.92 1013 10 16 0.00 0.00
6:53 pm 18:53 Mostly Cloudy 58 14.4 37 2.8 46 46 SW 24 39 29.91 1013 10 16 0.00 0.00
7:53 pm 19:53 Clear 53 11.7 36 2.2 52 52 SSW 14 22 29.96 1015 10 16 0.00 0.00
8:53 pm 20:53 Clear 54 12.2 36 2.2 51 51 SW 25 41 29.92 1013 10 16 0.00 0.00
9:53 pm 21:53 Clear 54 12.2 36 2.2 51 51 SSW 6 9 29.95 1014 10 16 0.00 0.00
10:53 pm 22:53 Clear 53 11.7 35 1.7 51 51 SW 14 22 29.93 1014 10 16 0.00 0.00
11:53 pm 23:53 Clear 53 11.7 35 1.7 51 51 VRB 6 9 29.93 1014 10 16 0.00 0.00

Powered by AerisWeather